Regional Weather Roundup
Issued by NWS

Home | Current Version | Previous Version | Graphics & Text | Print | Product List | Glossary Off
Versions: 1 2 3 4 5 6 7 8 9 10 11 12 13 14 15 16 17 18 19 20 21 22 23 24 25 26 27 28 29 30 31 32 33 34 35 36 37 38 39 40 41 42 43 44 45 46 47 48 49 50

000
ASUS43 KMPX 261401
RWRMN
WEATHER ROUNDUP FOR MINNESOTA
NATIONAL WEATHER SERVICE TWIN CITIES/CHANHASSEN MN
900 AM CDT TUE MAY 26 2015


NOTE: "FAIR" INDICATES FEW OR NO CLOUDS BELOW 12,000 FEET WITH NO
SIGNIFICANT WEATHER AND/OR OBSTRUCTIONS TO VISIBILITY. N/A MEANS
CURRENT SKY AND/OR WEATHER CONDITIONS ARE NOT AVAILABLE.

MNZ060>063-068>070-261500-
   Twin Cities Metro

CITY           SKY/WX    TMP DP  RH WIND       PRES   REMARKS
TWIN CITIES    CLOUDY    58  56  93 N7        29.82S FOG
ST PAUL        CLOUDY    59  57  93 N5        29.82S
CRYSTAL        CLOUDY    56  55  97 N8        29.81F
BLAINE         CLOUDY    57  57 100 NE7       29.83R FOG
LAKEVILLE      CLOUDY    57  57 100 N5        29.81S FOG
EDEN PRAIRIE   CLOUDY    58  56  93 NE8       29.81S FOG
SOUTH ST PAUL  CLOUDY    60  57  91 NW6       29.81F
LAKE ELMO      CLOUDY    59  57  94 N6        29.83S FOG
$$
MNZ001>005-007-008-013>017-022>024-027-028-261500-
   Northwest Minnesota

CITY           SKY/WX    TMP DP  RH WIND       PRES   REMARKS
BEMIDJI        PTSUNNY   55  53  90 CALM      29.87F
HALLOCK        SUNNY     64  55  72 S10       29.79F
ROSEAU         SUNNY     64  52  63 SW15      29.82S
WARROAD        SUNNY     63  52  67 SW15      29.83R
THIEF RVR FALL SUNNY     63  48  59 S13       29.83F
CROOKSTON      SUNNY     63  50  63 SW14      29.84S
FOSSTON        PTSUNNY   57  52  82 S5        29.87S
DETROIT LAKES  PTSUNNY   57  52  82 CALM      29.88S
MOORHEAD       PTSUNNY   57  54  88 SE6       29.86F
PARK RAPIDS    PTSUNNY   59  51  75 NE5       29.87S
MAHNOMEN       FAIR      56  52  87 CALM      29.86F
$$
MNZ006-009>011-018-025>026-261500-
   North Central Minnesota

CITY           SKY/WX    TMP DP  RH WIND       PRES   REMARKS
BAUDETTE       SUNNY     62  51  67 S12       29.84F
FLAG ISLAND    SUNNY     55  52  88 S15       29.81S
INTL FALLS     MOSUNNY   61  51  70 S6        29.86F
WASKISH        MOSUNNY   59  54  82 CALM      29.86
BIG FORK       PTSUNNY   59  55  88 CALM      29.87F
LONGVILLE      PTSUNNY   57  54  88 NE5       29.87S
GRAND RAPIDS   PTSUNNY   57  50  77 CALM      29.87F
CRANE LAKE     PTSUNNY   57  54  88 CALM      29.89F
ORR            PTSUNNY   57  52  82 CALM      29.85F
COOK           PTSUNNY   59  54  82 E3        29.87F
WALKER         FAIR      54  52  94 CALM      29.88S
$$
MNZ012-019>021-037-261500-
   Northeast Minnesota

CITY           SKY/WX    TMP DP  RH WIND       PRES   REMARKS
DULUTH         CLOUDY    56  52  86 NE6       29.85S
ELY            PTSUNNY   57  52  82 E6        29.87S
HIBBING        PTSUNNY   59  51  75 NE6       29.86F
EVELETH        PTSUNNY   59  54  82 E5        29.87S
DULUTH HARBOR  CLOUDY    52  50  93 CALM      29.87S
TWO HARBORS    CLOUDY    61  55  82 E6        29.84F
GRAND MARAIS     N/A     54  51  90 CALM      29.85R
G MARAIS ARPRT PTSUNNY   57  48  72 N10G18    29.88R
$$
MNZ029>031-032-039>041-046>048-054>057-064-261500-
   West Central Minnesota

CITY           SKY/WX    TMP DP  RH WIND       PRES   REMARKS
FERGUS FALLS   CLOUDY    61  52  72 NE5       29.87F
WHEATON        CLOUDY    55  52  88 NW3       29.88S
MORRIS         CLOUDY    59  55  88 NE14      29.84R
ALEXANDRIA     CLOUDY    58  52  80 NE8       29.86S
ELBOW LAKE     FAIR      57  52  81 NE8       29.86S
WADENA         PTSUNNY   55  54  94 NE5       29.87S
GLENWOOD       CLOUDY    55  52  88 N13       29.85S
APPLETON       CLOUDY    59  52  77 NE13      29.85R
BENSON         CLOUDY    57  52  82 E7        29.84S
ORTONVILLE     CLOUDY    57  52  82 N7        29.86R
MADISON        CLOUDY    57  52  82 VRB10     29.85R
WILLMAR        CLOUDY    57  54  88 NE10      29.85R
$$
MNZ033>034-036-042>043-049>051-058-059-261500-
   Central Minnesota

CITY           SKY/WX    TMP DP  RH WIND       PRES   REMARKS
ST CLOUD       CLOUDY    57  52  83 NE6       29.84R
SAUK CENTRE    CLOUDY    56  51  84 NE10      29.85R
PAYNESVILLE    CLOUDY    54  51  91 N10G18    29.84R
AITKIN         CLOUDY    55  50  82 N7        29.85S
PINE RIVER     PTSUNNY   55  52  88 NE6       29.91S
BRAINERD       CLOUDY    56  53  90 NE8       29.86S
STAPLES        PTSUNNY   55  52  88 N7        29.86S
LONG PRAIRIE   CLOUDY    55  50  82 N12       29.85S
LITTLE FALLS   CLOUDY    55  50  82 NE3       29.85R
LITCHFIELD     CLOUDY    55  55 100 NE8       29.84R
BUFFALO        CLOUDY    55  52  90 N7        29.84S
MAPLE LAKE     CLOUDY    55  54  97 N8        29.85R
$$
MNZ037-044-045-052-053-261500-
   East Central Minnesota

CITY           SKY/WX    TMP DP  RH WIND       PRES   REMARKS
PRINCETON      CLOUDY    55  54  94 NE7       29.84S
MORA           CLOUDY    54  50  87 NE7       29.86R
CAMBRIDGE      CLOUDY    55  46  71 NE3       29.83R
RUSH CITY      CLOUDY    52  51  97 CALM      29.85R FOG
MOOSE LAKE     CLOUDY    54  54 100 NE5       29.84S
HINCKLEY       CLOUDY    54  54 100 NE8       29.85R
CLOQUET        CLOUDY    55  52  88 NE3       29.86S
MCGREGOR       CLOUDY    54  54 100 NE5       29.87S
$$
MNZ071>073-080-081-089-090-097-098-261500-
   Southwest Minnesota

CITY           SKY/WX    TMP DP  RH WIND       PRES   REMARKS
MONTEVIDEO     CLOUDY    57  54  88 E10       29.85R
GRANITE FALLS  CLOUDY    56  52  86 NE5       29.86R
CANBY          CLOUDY    55  52  89 N6        29.86S
MARSHALL       CLOUDY    55  48  76 NE12      29.84S
REDWOOD FALLS  CLOUDY    57  55  93 N6        29.82S FOG
OLIVIA         CLOUDY    54  50  87 NE7       29.84R
WINDOM         LGT RAIN  55  54  94 N10       29.82F
WORTHINGTON    CLOUDY    55  52  88 N9        29.83S
JACKSON        CLOUDY    55  55 100 N8        29.82S
TRACY          LGT RAIN  55  54  95 N7        29.84S
SLAYTON        LGT RAIN  54  54 100 N8        29.85R
$$
MNZ065>067-074>077-082>085-091>093-261500-
   South Central Minnesota

CITY           SKY/WX    TMP DP  RH WIND       PRES   REMARKS
MANKATO        CLOUDY    57  55  94 N5        29.81R
NEW ULM        RAIN      55  55 100 NW9       29.82S
ST JAMES       CLOUDY    57  57 100 N6        29.82F
FAIRMONT       CLOUDY    57  52  82 N12       29.81R
GLENCOE        CLOUDY    58  57  97 N5        29.82S
FARIBAULT      CLOUDY    61  59  94 NE3       29.82R
OWATONNA       CLOUDY    61  59  94 E3        29.82R
WASECA         CLOUDY    59  57  94 N5        29.82R
ALBERT LEA     RAIN      63  57  82 S3        29.81R
$$
MNZ078>079-086>088-094>096-261500-
   Southeast Minnesota

CITY           SKY/WX    TMP DP  RH WIND       PRES   REMARKS
ROCHESTER      LGT RAIN  62  58  86 S13       29.82S
RED WING       CLOUDY    61  61 100 SE3       29.80S
STANTON        CLOUDY    61  59  94 NE3       29.80R
DODGE CENTER   CLOUDY    63  57  82 SW12      29.82R
WINONA         LGT RAIN  61  59  94 SE6       29.82S
AUSTIN         LGT RAIN  61  57  88 S3        29.82S
PRESTON        CLOUDY    58  56  93 SW6       29.84S
$$
ABBREVIATIONS USED IN REMARKS
   TC - TEMPERATURES IN CELSIUS
  WCI - WIND CHILL INDEX
   HX - HEAT INDEX
  VSB - VISIBILITY
$$



USA.gov is the U.S. government's official web portal to all federal, state and local government web resources and services.